Regional Weather Roundup
Issued by NWS

Home | Current Version | Previous Version | Text Only | Print | Product List | Glossary Off
Versions: 1 2 3 4 5 6 7 8 9 10 11 12 13 14 15 16 17 18 19 20 21 22 23 24 25 26 27 28 29 30 31 32 33 34 35 36 37 38 39 40 41 42 43 44 45 46 47 48 49 50

000
ASUS43 KFSD 281102
RWRSD

WEATHER ROUNDUP FOR SOUTH DAKOTA
NATIONAL WEATHER SERVICE SIOUX FALLS SD
500 AM CST SAT FEB 28 2015

NOTE: "FAIR" INDICATES FEW OR NO CLOUDS BELOW 12,000 FEET WITH NO
SIGNIFICANT WEATHER AND/OR OBSTRUCTIONS TO VISIBILITY.


SDZ001>005-009-010-012>017-281200-
NORTHWEST AND NORTH CENTRAL SOUTH DAKOTA

CITY           SKY/WX    TMP DP  RH WIND       PRES   REMARKS
BUFFALO          N/A      9   3  77 W10       29.94R WCI  -5
FAITH            N/A     11   4  73 S14       30.02R WCI  -5
MOBRIDGE       PTCLDY    11   2  67 SE12      30.09S WCI  -3
$$

SDZ012>016-024>037-041>051-057-063-072>074-281200-
SOUTHWEST AND SOUTH CENTRAL SOUTH DAKOTA

CITY           SKY/WX    TMP DP  RH WIND       PRES   REMARKS
RAPID CTY ARPT CLEAR      7   2  80 CALM      30.01R
PIERRE         CLEAR     12   3  67 S17       30.14F WCI  -5
CUSTER         CLEAR      6   2  83 NW3       29.85R
ELLSWORTH AFB  CLEAR     15   7  70 N14       29.99R WCI   0
PHILIP         CLEAR     13   5  70 SW3       30.09R
PINE RIDGE     CLEAR     11   4  73 S17G23    30.02F WCI  -6
WINNER         FAIR      12   1  61 S13       30.19S WCI  -3
$$

SDZ004>011-016>023-039-040-281200-
NORTHEAST SOUTH DAKOTA

CITY           SKY/WX    TMP DP  RH WIND       PRES   REMARKS
ABERDEEN       PTCLDY     7  -1  70 S14       30.24S WCI -10
WATERTOWN      PTCLDY    -2  -6  83 SE12      30.26F WCI -20
SISSETON         N/A      8  -1  66 S12       30.27  WCI  -7
$$

SDZ017-020-022-023-036>040-048>070-281200-
SOUTHEAST SOUTH DAKOTA

CITY           SKY/WX    TMP DP  RH WIND       PRES   REMARKS
SIOUX FALLS    FAIR       5  -2  72 S13       30.37F WCI -12
HURON          PTCLDY     6  -1  73 S15       30.28S WCI -12
MITCHELL       CLEAR      8   1  73 S13       30.33S WCI  -8
YANKTON        CLEAR      7   0  72 S7        30.39F WCI  -5
$$

ABBREVIATIONS USED IN REMARKS
   TC - TEMPERATURE IN CELSIUS
  WCI - WIND CHILL INDEX
   HX - HEAT INDEX
  VSB - VISIBILITY




USA.gov is the U.S. government's official web portal to all federal, state and local government web resources and services.